{"data":{"norad_id":65618,"epoch":"2026-09-20T13:56:55.914144Z","epoch_age_seconds":145436,"freshness":"FRESH","line1":"1 65618U 25209B   26263.58120271 -.00000099  00000+0  53164-4 0  9990","line2":"2 65618  50.0015   9.7717 0001283  74.0953 286.0066 13.41472735 50440","mean_motion":13.41472735,"eccentricity":0.0001283,"inclination_deg":50.0015,"raan_deg":9.7717,"arg_perigee_deg":74.0953,"mean_anomaly_deg":286.0066,"bstar":5.3164e-5,"rev_number":5044,"period_min":107.34470872418,"perigee_km":1102.8382448637,"apogee_km":1104.7581094302,"semimajor_km":7481.935177147,"source":"CELESTRAK","updated_at":"2026-09-21T09:00:15.441413Z"}}